Location: Göttingen
(51.5413°N, 9.9158°E)
Time: 07:44:38
(UTC+02:00)

Envisat - Pass Details

Date: 22 January 2022
Orbit: 764 x 765 km, 98.2° (Epoch: 25 May)

Event Time Altitude Azimuth Distance (km) Brightness Sun altitude
Rises 06:03:32 0° 11° (N) 3,244 6.3 -19.6°
Reaches altitude 10° 06:05:54 10° 6° (N) 2,314 5.5 -19.3°
Maximum altitude 06:10:47 50° 292° (WNW) 978 3.1 -18.5°
Drops below altitude 10° 06:15:40 10° 219° (SW) 2,299 5.2 -17.8°
Sets 06:18:01 0° 214° (SSW) 3,221 6.0 -17.4°
